Home > Weather > Stellenbosch > Past weeks

Flag for South Africa Weather for the Past 2 Weeks in Stellenbosch, South Africa

Now
73 °F

Passing clouds.


Feels Like: 75 °F
Forecast: 63 / 88 °F
Wind: 18 mph from Northwest

Location: Cape Town International Airport

Current Time: Feb 6, 2016 at 10:37:17 AM

Latest Report: Feb 6, 2016 at 10:00 AM


Visibility: N/A

Pressure: 29.86 "Hg

Humidity: 74%

Dew point: 64 °F

Location of StellenboschLocation

Historic Weather in Stellenbosch — Graph

°F

Stellenbosch Temperature Yesterday

Maximum temperature yesterday: 91 °F (at 3:00 PM)
Minimum temperature yesterday: 66 °F (at 4:00 AM)
Average temperature yesterday: 77 °F

High & Low Weather Summary for the Past Weeks

 TemperatureHumidityPressure
High91 °F (Jan 31, 2:00 PM)94% (Jan 25, 2:00 AM)30.09 "Hg (Jan 25, 2:00 AM)
Low61 °F (Jan 26, 1:00 AM)31% (Feb 5, 1:00 PM)29.74 "Hg (Feb 1, 3:00 AM)
Average72 °F69%29.91 "Hg
* Reported Jan 22 9:00 AM — Feb 6 9:00 AM, Stellenbosch, Weather by CustomWeather, © 2016

Note: Actual official high and low records may vary slightly from our data, if they occured in-between our weather recording intervals... More about our weather records

Advertising

Stellenbosch Weather History for the Previous 24 Hours

 ConditionsComfort  
Time TempWeatherWind HumidityBarometerVisibility
9:00 AM
Sat, Feb 6
75 °FPassing clouds.10 mph65%29.83 "HgN/A
8:00 AM72 °FSunny.9 mph69%29.80 "Hg10 mi
7:00 AM70 °FSunny.10 mph69%29.77 "Hg10 mi
6:00 AM70 °FSunny.14 mph64%29.77 "Hg10 mi
5:00 AM70 °FClear.8 mph64%29.74 "Hg10 mi
4:00 AM66 °FPassing clouds.3 mph73%29.74 "HgN/A
3:00 AM68 °FClear.5 mph73%29.77 "Hg10 mi
2:00 AM68 °FPassing clouds.3 mph69%29.77 "HgN/A
1:00 AM66 °FClear.2 mph73%29.80 "Hg10 mi
12:00 AM68 °FClear.5 mph69%29.80 "Hg10 mi
11:00 PM
Fri, Feb 5
70 °FClear.2 mph64%29.83 "Hg10 mi
10:00 PM73 °FPassing clouds.6 mph61%29.83 "HgN/A
9:00 PM73 °FPassing clouds.7 mph61%29.83 "HgN/A
8:00 PM75 °FClear.6 mph57%29.83 "Hg10 mi
7:00 PM82 °FClear.7 mph45%29.83 "Hg10 mi
6:00 PM86 °FSunny.10 mph40%29.80 "Hg10 mi
5:00 PM90 °FSunny.12 mph33%29.80 "Hg10 mi
4:00 PM90 °FSunny.10 mph33%29.83 "Hg10 mi
3:00 PM91 °FPassing clouds.10 mph32%29.83 "HgN/A
2:00 PM90 °FSunny.13 mph33%29.86 "Hg10 mi
1:00 PM90 °FPassing clouds.10 mph31%29.86 "HgN/A
12:00 PM88 °FPassing clouds.10 mph35%29.89 "HgN/A
11:00 AM84 °FPassing clouds.9 mph40%29.89 "HgN/A
10:00 AM81 °FPassing clouds.6 mph45%29.89 "HgN/A
Weather by CustomWeather, © 2016

See weather overviewHow to use our weather pages